Weather History for Eglinton, United Kingdom

Change the Weather History Date:

Friday, February 8, 2013

  Actual Average Record
Temperature  
Mean Temperature 45 °F -  
Max Temperature 48 °F 46 °F 53 °F (1998)
Min Temperature 42 °F 38 °F 32 °F (2001)
Degree Days  
Heating Degree Days 20    
Moisture  
Dew Point 41 °F    
Average Humidity 88    
Maximum Humidity 93    
Minimum Humidity 81    
Precipitation  
Precipitation 0.00 in - - ()
Sea Level Pressure  
Sea Level Pressure 30.23 in    
Wind  
Wind Speed 8 mph ()    
Max Wind Speed 17 mph    
Max Gust Speed -    
Visibility 5.8 miles    
Events Rain    
Averages and records for this station are not official NWS values.
T = Trace of Precipitation, MM = Missing Value Source: Averaged Metar Reports

Daily Weather History Graph

Daily Weather History Graph

Search for Another Location

Airport:

Trip Planner

Search our weather history database for the weather conditions in past years. The results will help you decide how hot, cold, wet, or windy it might be!

Date:

Astronomy

Feb. 08, 2013 Rise Set
Actual Time 8:05 AM GMT 5:20 PM GMT
Civil Twilight 7:27 AM GMT 5:59 PM GMT
Nautical Twilight 6:44 AM GMT 6:42 PM GMT
Astronomical Twilight 6:02 AM GMT 7:24 PM GMT
Moon 6:34 AM GMT (2/8) 3:30 PM GMT (2/8)
Length of Visible Light 10h 32m
Length of Day
9h 14m
Waning Crescent, 4% of the Moon is Illuminated
Feb 8
Waning Crescent
Feb 10
New
Feb 17
First Quarter
Feb 25
Full
Mar 4
Last Quarter

Hourly Weather History & Observations

Time (GMT) Temp. Windchill Dew Point Humidity Pressure Visibility Wind Dir Wind Speed Gust Speed Precip Events Conditions
6:20 AM 42.8 °F 37.5 °F 37.4 °F 81% 30.24 in 6.2 mi NW 9.2 mph - N/A   Mostly Cloudy
6:50 AM 42.8 °F 37.5 °F 37.4 °F 81% 30.24 in 6.2 mi NNW 9.2 mph - N/A   Mostly Cloudy
7:20 AM 42.8 °F 36.6 °F 37.4 °F 81% 30.24 in 6.2 mi NW 11.5 mph - N/A   Mostly Cloudy
7:50 AM 42.8 °F 36.6 °F 37.4 °F 81% 30.24 in 6.2 mi NW 11.5 mph - N/A   Mostly Cloudy
8:20 AM 42.8 °F 38.6 °F 37.4 °F 81% 30.24 in 6.2 mi West 6.9 mph - N/A   Mostly Cloudy
8:50 AM 42.8 °F 37.5 °F 37.4 °F 81% 30.27 in 6.2 mi WNW 9.2 mph - N/A Rain Light Rain
9:20 AM 42.8 °F 38.0 °F 39.2 °F 87% 30.27 in 6.2 mi WNW 8.1 mph - N/A Rain Light Rain
9:50 AM 42.8 °F 40.1 °F 39.2 °F 87% 30.27 in 6.2 mi WNW 4.6 mph - N/A Rain Light Rain
10:20 AM 42.8 °F 41.1 °F 39.2 °F 87% 30.27 in 6.2 mi West 3.5 mph - N/A   Overcast
10:50 AM 42.8 °F 39.3 °F 39.2 °F 87% 30.27 in 6.2 mi SW 5.8 mph - N/A Rain Light Rain
11:20 AM 44.6 °F 40.7 °F 41.0 °F 87% 30.27 in 4.3 mi SW 6.9 mph - N/A Rain Light Rain
11:50 AM 42.8 °F 39.3 °F 41.0 °F 93% 30.24 in 3.7 mi SW 5.8 mph - N/A Rain Light Rain
12:20 PM 42.8 °F 37.5 °F 41.0 °F 93% 30.24 in 6.2 mi SW 9.2 mph - N/A   Mostly Cloudy
12:50 PM 44.6 °F 40.7 °F 42.8 °F 93% 30.24 in 6.2 mi SW 6.9 mph - N/A   Mostly Cloudy
1:20 PM 44.6 °F 40.2 °F 42.8 °F 93% 30.24 in 4.3 mi SW 8.1 mph - N/A   Mostly Cloudy
1:50 PM 44.6 °F 39.2 °F 42.8 °F 93% 30.21 in 4.3 mi WSW 10.4 mph - N/A   Mostly Cloudy
2:20 PM 46.4 °F 41.9 °F 44.6 °F 93% 30.21 in 5.6 mi WSW 9.2 mph - N/A   Mostly Cloudy
2:50 PM 44.6 °F 38.4 °F 42.8 °F 93% 30.21 in 5.6 mi WSW 12.7 mph - N/A   Mostly Cloudy
3:20 PM 46.4 °F 41.5 °F 44.6 °F 93% 30.21 in 6.2 mi West 10.4 mph - N/A   Mostly Cloudy
3:50 PM 46.4 °F 41.5 °F 44.6 °F 93% 30.21 in 6.2 mi West 10.4 mph - N/A   Mostly Cloudy
4:20 PM 46.4 °F 40.4 °F 44.6 °F 93% 30.18 in 6.2 mi West 13.8 mph - N/A   Mostly Cloudy
4:50 PM 48.2 °F - 44.6 °F 87% 30.18 in 6.2 mi West 11.5 mph - N/A   Mostly Cloudy
5:20 PM 46.4 °F 40.7 °F 44.6 °F 93% 30.21 in 6.2 mi West 12.7 mph - N/A   Mostly Cloudy
5:50 PM 46.4 °F 40.7 °F 42.8 °F 87% 30.18 in 6.2 mi West 12.7 mph - N/A   Mostly Cloudy
6:20 PM 46.4 °F 39.5 °F 42.8 °F 87% 30.18 in 6.2 mi West 17.3 mph - N/A   Mostly Cloudy
6:50 PM 46.4 °F 41.9 °F 42.8 °F 87% 30.18 in 6.2 mi West 9.2 mph - N/A   Mostly Cloudy